When you browse on this site, cookies collect data to enhance your experience and personalize the content and advertising you see.
Visit our Privacy Policy to learn more. By continuing to use the site, you agree to this use of cookies and data.
  • In Portugal
  • List of Countries
  • For 7 days
  • Water Temperature
  • Weather Map
  • Weather Widgets
  • user-avatar
    Login

    Hourly Weather Akhaltsikhe

    Today, 27 May, Wednesday

    Time Temperature Precipitation Wind Pressure Humidity
    00:00 +11°C° 0 mm 1 mps 651 mmHg 83%
    01:00 +11°C° 0 mm 1 mps 651 mmHg 82%
    02:00 +11°C° 0 mm 1 mps 651 mmHg 82%
    03:00 +10°C° 0 mm 2 mps 651 mmHg 80%
    04:00 +10°C° 0 mm 2 mps 651 mmHg 79%
    05:00 +12°C° 0 mm 1 mps 652 mmHg 78%
    06:00 +12°C° 0 mm 1 mps 652 mmHg 78%
    07:00 +15°C° 0 mm 1 mps 653 mmHg 71%
    08:00 +18°C° 0 mm 1 mps 653 mmHg 64%
    09:00 +21°C° 0 mm 1 mps 654 mmHg 57%
    10:00 +21°C° 0 mm 2 mps 654 mmHg 53%
    11:00 +24°C° 0 mm 2 mps 654 mmHg 48%
    12:00 +26°C° 0 mm 2 mps 655 mmHg 43%
    13:00 +26°C° 0 mm 2 mps 655 mmHg 42%
    14:00 +26°C° 0 mm 3 mps 654 mmHg 42%
    15:00 +27°C° 0 mm 3 mps 654 mmHg 41%
    16:00 +25°C° 0.1 mm 3 mps 654 mmHg 49%
    17:00 +24°C° 0.1 mm 2 mps 653 mmHg 57%
    18:00 +23°C° 0.1 mm 1 mps 653 mmHg 65%
    19:00 +20°C° 0 mm 2 mps 652 mmHg 67%
    20:00 +18°C° 0 mm 2 mps 652 mmHg 70%
    21:00 +16°C° 0 mm 2 mps 651 mmHg 72%
    22:00 +15°C° 0 mm 2 mps 651 mmHg 73%
    23:00 +15°C° 0 mm 2 mps 651 mmHg 74%

    Tomorrow, 28 May, Thursday

    Time Temperature Precipitation Wind Pressure Humidity
    00:00 +14°C° 0 mm 2 mps 651 mmHg 74%
    01:00 +14°C° 0 mm 2 mps 650 mmHg 74%
    02:00 +14°C° 0 mm 2 mps 650 mmHg 74%
    03:00 +13°C° 0 mm 2 mps 650 mmHg 74%
    04:00 +14°C° 0 mm 2 mps 650 mmHg 73%
    05:00 +14°C° 0 mm 1 mps 650 mmHg 72%
    06:00 +15°C° 0 mm 1 mps 650 mmHg 71%
    07:00 +18°C° 0 mm 1 mps 651 mmHg 63%
    08:00 +21°C° 0 mm 1 mps 651 mmHg 54%
    09:00 +24°C° 0 mm 1 mps 652 mmHg 46%
    10:00 +25°C° 0 mm 1 mps 652 mmHg 42%
    11:00 +26°C° 0 mm 1 mps 652 mmHg 37%
    12:00 +28°C° 0 mm 1 mps 653 mmHg 33%
    13:00 +28°C° 0 mm 1 mps 652 mmHg 32%
    14:00 +28°C° 0 mm 1 mps 652 mmHg 32%
    15:00 +28°C° 0 mm 1 mps 652 mmHg 31%
    16:00 +27°C° 0 mm 1 mps 652 mmHg 40%
    17:00 +26°C° 0 mm 1 mps 651 mmHg 50%
    18:00 +25°C° 0 mm 2 mps 651 mmHg 59%
    19:00 +22°C° 0.7 mm 1 mps 651 mmHg 68%
    20:00 +19°C° 0.7 mm 1 mps 650 mmHg 77%
    21:00 +15°C° 0.7 mm 1 mps 650 mmHg 86%
    22:00 +15°C° 0.4 mm 1 mps 650 mmHg 87%
    23:00 +15°C° 0.4 mm 1 mps 650 mmHg 87%

    Day after tomorrow, 29 May, Friday

    Time Temperature Precipitation Wind Pressure Humidity
    00:00 +14°C° 0.4 mm 1 mps 650 mmHg 88%
    01:00 +14°C° 0.1 mm 1 mps 649 mmHg 86%
    02:00 +14°C° 0.1 mm 1 mps 649 mmHg 84%
    03:00 +14°C° 0.1 mm 1 mps 648 mmHg 82%
    04:00 +15°C° 0 mm 1 mps 648 mmHg 81%
    05:00 +15°C° 0 mm 1 mps 648 mmHg 80%
    06:00 +15°C° 0 mm 1 mps 648 mmHg 80%
    07:00 +19°C° 0 mm 1 mps 648 mmHg 71%
    08:00 +21°C° 0 mm 1 mps 648 mmHg 62%
    09:00 +24°C° 0 mm 2 mps 648 mmHg 53%
    10:00 +26°C° 0 mm 2 mps 649 mmHg 48%
    11:00 +27°C° 0 mm 3 mps 649 mmHg 43%
    12:00 +29°C° 0 mm 4 mps 649 mmHg 38%
    13:00 +28°C° 0.1 mm 4 mps 649 mmHg 41%
    14:00 +28°C° 0.1 mm 4 mps 648 mmHg 44%
    15:00 +27°C° 0.1 mm 4 mps 648 mmHg 47%
    16:00 +24°C° 0.6 mm 3 mps 647 mmHg 60%
    17:00 +20°C° 0.6 mm 3 mps 647 mmHg 74%
    18:00 +16°C° 0.6 mm 2 mps 646 mmHg 88%
    19:00 +15°C° 0.1 mm 2 mps 646 mmHg 90%
    20:00 +14°C° 0.1 mm 2 mps 647 mmHg 92%
    21:00 +13°C° 0.1 mm 1 mps 647 mmHg 95%
    22:00 +13°C° 0 mm 1 mps 647 mmHg 95%
    23:00 +12°C° 0 mm 1 mps 647 mmHg 96%

    30 May, Saturday

    Time Temperature Precipitation Wind Pressure Humidity
    00:00 +12°C° 0 mm 1 mps 647 mmHg 97%
    01:00 +12°C° 0.1 mm 1 mps 647 mmHg 97%
    02:00 +11°C° 0.1 mm 1 mps 647 mmHg 97%
    03:00 +11°C° 0.1 mm 1 mps 647 mmHg 96%
    04:00 +11°C° 0.1 mm 1 mps 648 mmHg 96%
    05:00 +11°C° 0.1 mm 1 mps 648 mmHg 95%
    06:00 +10°C° 0.1 mm 0 mps 648 mmHg 94%
    07:00 +12°C° 0.1 mm 1 mps 649 mmHg 90%
    08:00 +13°C° 0.1 mm 1 mps 649 mmHg 86%
    09:00 +14°C° 0.1 mm 1 mps 649 mmHg 81%
    10:00 +15°C° 0.2 mm 1 mps 649 mmHg 78%
    11:00 +16°C° 0.2 mm 1 mps 650 mmHg 74%
    12:00 +17°C° 0.2 mm 2 mps 650 mmHg 70%
    13:00 +16°C° 0.5 mm 2 mps 650 mmHg 71%
    14:00 +16°C° 0.5 mm 2 mps 650 mmHg 72%
    15:00 +16°C° 0.5 mm 3 mps 650 mmHg 73%
    16:00 +16°C° 0.6 mm 2 mps 650 mmHg 77%
    17:00 +15°C° 0.6 mm 2 mps 649 mmHg 81%
    18:00 +14°C° 0.6 mm 2 mps 649 mmHg 85%
    19:00 +13°C° 0.1 mm 1 mps 649 mmHg 88%
    20:00 +11°C° 0.1 mm 1 mps 650 mmHg 91%
    21:00 +10°C° 0.1 mm 1 mps 650 mmHg 95%
    22:00 +10°C° 0 mm 1 mps 650 mmHg 92%
    23:00 +9°C° 0 mm 1 mps 650 mmHg 90%

    31 May, Sunday

    Time Temperature Precipitation Wind Pressure Humidity
    00:00 +9°C° 0 mm 1 mps 650 mmHg 88%
    01:00 +8°C° 0 mm 1 mps 649 mmHg 87%
    02:00 +8°C° 0 mm 1 mps 649 mmHg 86%
    03:00 +8°C° 0 mm 1 mps 649 mmHg 85%
    04:00 +9°C° 0 mm 1 mps 649 mmHg 84%
    05:00 +9°C° 0 mm 1 mps 650 mmHg 83%
    06:00 +10°C° 0 mm 1 mps 650 mmHg 82%
    07:00 +13°C° 0 mm 1 mps 651 mmHg 74%
    08:00 +15°C° 0 mm 1 mps 651 mmHg 65%
    09:00 +18°C° 0 mm 1 mps 652 mmHg 57%
    10:00 +20°C° 0 mm 1 mps 652 mmHg 52%
    11:00 +21°C° 0 mm 1 mps 652 mmHg 46%
    12:00 +22°C° 0 mm 1 mps 652 mmHg 41%
    13:00 +23°C° 0 mm 1 mps 652 mmHg 41%
    14:00 +23°C° 0 mm 1 mps 652 mmHg 41%
    15:00 +23°C° 0 mm 1 mps 652 mmHg 41%
    16:00 +22°C° 0.1 mm 1 mps 651 mmHg 48%
    17:00 +20°C° 0.1 mm 2 mps 651 mmHg 56%
    18:00 +18°C° 0.1 mm 2 mps 650 mmHg 63%
    19:00 +16°C° 0 mm 2 mps 650 mmHg 66%
    20:00 +14°C° 0 mm 1 mps 650 mmHg 68%
    21:00 +12°C° 0 mm 1 mps 649 mmHg 71%
    22:00 +11°C° 0 mm 1 mps 649 mmHg 70%
    23:00 +11°C° 0 mm 1 mps 649 mmHg 70%

    1 June, Monday

    Time Temperature Precipitation Wind Pressure Humidity
    00:00 +11°C° 0 mm 1 mps 649 mmHg 70%
    01:00 +10°C° 0 mm 1 mps 648 mmHg 72%
    02:00 +10°C° 0 mm 1 mps 648 mmHg 74%
    03:00 +10°C° 0 mm 1 mps 648 mmHg 77%
    04:00 +11°C° 0 mm 1 mps 648 mmHg 77%
    05:00 +12°C° 0 mm 1 mps 648 mmHg 77%
    06:00 +12°C° 0 mm 1 mps 648 mmHg 77%
    07:00 +15°C° 0 mm 1 mps 649 mmHg 67%
    08:00 +18°C° 0 mm 2 mps 649 mmHg 58%
    09:00 +20°C° 0 mm 2 mps 650 mmHg 49%
    10:00 +23°C° 0 mm 2 mps 650 mmHg 44%
    11:00 +24°C° 0 mm 2 mps 650 mmHg 40%
    12:00 +25°C° 0 mm 3 mps 651 mmHg 35%
    13:00 +26°C° 0 mm 3 mps 650 mmHg 34%
    14:00 +26°C° 0 mm 2 mps 650 mmHg 34%
    15:00 +26°C° 0 mm 2 mps 650 mmHg 33%
    16:00 +25°C° 0.1 mm 2 mps 649 mmHg 43%
    17:00 +23°C° 0.1 mm 2 mps 649 mmHg 54%
    18:00 +21°C° 0.1 mm 2 mps 648 mmHg 65%
    19:00 +19°C° 0 mm 2 mps 648 mmHg 66%
    20:00 +17°C° 0 mm 2 mps 648 mmHg 68%
    21:00 +15°C° 0 mm 2 mps 648 mmHg 69%
    22:00 +14°C° 0 mm 2 mps 648 mmHg 70%
    23:00 +14°C° 0 mm 2 mps 648 mmHg 71%
    Show more